Regional Weather Roundup
Issued by NWS

Home | Current Version | Previous Version | Text Only | Print | Product List | Glossary Off
Versions: 1 2 3 4 5 6 7 8 9 10 11 12 13 14 15 16 17 18 19 20 21 22 23 24 25 26 27 28 29 30 31 32 33 34 35 36 37 38 39 40 41 42 43 44 45 46 47 48 49 50

000
ASUS43 KLMK 030002
RWRKY
KENTUCKY REGIONAL WEATHER ROUNDUP
NATIONAL WEATHER SERVICE LOUISVILLE KY
800 PM EDT TUE SEP 02 2014

NOTE "FAIR" INDICATES FEW OR NO CLOUDS BELOW 12,000 FEET
WITH NO SIGNIFICANT WEATHER AND/OR OBSTRUCTIONS TO VISIBILITY.

KYZ001>023-026-027-061>063-070>075-030100-
WESTERN AND SOUTH CENTRAL KENTUCKY

CITY           SKY/WX    TMP DP  RH WIND       PRES   REMARKS
PADUCAH        MOCLDY    82  70  66 NW3       29.94R
HENDERSON      PTCLDY    81  70  69 N3        29.94R
OWENSBORO      PTCLDY    81  72  74 NW7       29.95R
HOPKINSVILLE   CLOUDY    75  75 100 S2        29.95S
BOWLING GREEN  LGT RAIN  77  72  84 SW12      29.97R
GLASGOW        CLOUDY    75  73  96 S3        29.98R
$$

KYZ024-025-028>034-038-045-046-053-030100-
NORTH CENTRAL KENTUCKY

CITY           SKY/WX    TMP DP  RH WIND       PRES   REMARKS
LOUISVILLE/SDF PTCLDY    80  71  74 NW7       29.96R
LOUISVILLE/LOU PTCLDY    78  72  81 CALM      29.96R
FORT KNOX      MOCLDY    79  74  84 N3        29.95R
$$

KYZ035>037-039>044-047>052-055>060-089>105-030100-
NORTHEAST KENTUCKY

CITY           SKY/WX    TMP DP  RH WIND       PRES   REMARKS
LEXINGTON      MOCLDY    73  69  87 W3        29.97F
COVINGTON      MOCLDY    72  70  93 S3        29.95R
FRANKFORT      PTCLDY    74  70  87 SW3       29.96R
$$

KYZ054-064>069-076>088-106>120-030100-
SOUTHEAST KENTUCKY

CITY           SKY/WX    TMP DP  RH WIND       PRES   REMARKS
JACKSON        CLOUDY    69  66  90 CALM      30.00R
LONDON         CLOUDY    74  70  87 SW5       30.00R
SOMERSET       MOCLDY    70  68  94 CALM      30.01S
MIDDLESBORO    CLOUDY    70  68  93 CALM      30.02R
MONTICELLO     CLOUDY    72  70  93 CALM      30.00S
$$



USA.gov is the U.S. government's official web portal to all federal, state and local government web resources and services.